Change the Weather History Date:

Friday, January 25, 2013

  Actual Average Record
Temperature  
Mean Temperature 19 °F -  
Max Temperature 23 °F 34 °F 46 °F (2002)
Min Temperature 15 °F 20 °F -7 °F (2000)
Degree Days  
Heating Degree Days 46    
Moisture  
Dew Point 12 °F    
Average Humidity 74    
Maximum Humidity 89    
Minimum Humidity 59    
Precipitation  
Precipitation 0.00 in - - ()
Sea Level Pressure  
Sea Level Pressure 30.21 in    
Wind  
Wind Speed 7 mph (SE)    
Max Wind Speed 12 mph    
Max Gust Speed -    
Visibility 8 miles    
Events Snow    
Averages and records for this station are not official NWS values.
T = Trace of Precipitation, MM = Missing Value Source: NWS Daily Summary

Daily Weather History Graph

Daily Weather History Graph

Search for Another Location

Airport or City:

Trip Planner

Search our weather history database for the weather conditions in past years. The results will help you decide how hot, cold, wet, or windy it might be!

Date:

Astronomy

Jan. 25, 2013 Rise Set
Actual Time 7:46 AM EST 5:43 PM EST
Civil Twilight 7:17 AM EST 6:12 PM EST
Nautical Twilight 6:44 AM EST 6:45 PM EST
Astronomical Twilight 6:12 AM EST 7:17 PM EST
Moon 4:40 PM EST (1/25) 6:25 AM EST (1/25)
Length of Visible Light 10h 55m
Length of Day
9h 57m
Waxing Gibbous, 98% of the Moon is Illuminated
Jan 25
Waxing Gibbous
Jan 26
Full
Feb 3
Last Quarter
Feb 10
New
Feb 17
First Quarter

Hourly Weather History & Observations

Time (EST) Temp. Windchill Dew Point Humidity Pressure Visibility Wind Dir Wind Speed Gust Speed Precip Events Conditions
12:15 AM 17.4 °F 10.4 °F 7.7 °F 66% 30.45 in 10.0 mi East 4.6 mph - N/A   Clear
12:35 AM 17.2 °F 11.9 °F 8.1 °F 67% 30.45 in 10.0 mi East 3.5 mph - N/A   Clear
12:55 AM 17.4 °F 8.0 °F 8.6 °F 68% 30.44 in 10.0 mi East 6.9 mph - N/A   Clear
1:15 AM 17.2 °F 8.9 °F 7.7 °F 66% 30.42 in 10.0 mi East 5.8 mph - N/A   Clear
1:35 AM 17.6 °F 7.3 °F 7.7 °F 65% 30.41 in 10.0 mi East 8.1 mph - N/A   Clear
1:55 AM 17.6 °F 6.4 °F 7.2 °F 64% 30.39 in 10.0 mi East 9.2 mph - N/A   Clear
2:15 AM 17.6 °F 7.3 °F 7.0 °F 63% 30.39 in 10.0 mi East 8.1 mph - N/A   Scattered Clouds
2:35 AM 17.6 °F 8.2 °F 6.8 °F 63% 30.40 in 10.0 mi East 6.9 mph - N/A   Mostly Cloudy
2:55 AM 17.6 °F 6.4 °F 6.6 °F 62% 30.39 in 10.0 mi East 9.2 mph - N/A   Scattered Clouds
3:15 AM 17.6 °F 7.3 °F 6.6 °F 62% 30.38 in 10.0 mi East 8.1 mph - N/A   Scattered Clouds
3:35 AM 17.6 °F 7.3 °F 6.6 °F 62% 30.38 in 10.0 mi East 8.1 mph - N/A   Scattered Clouds
3:55 AM 17.6 °F 8.2 °F 6.4 °F 62% 30.37 in 10.0 mi East 6.9 mph - N/A   Mostly Cloudy
4:15 AM 17.6 °F 10.7 °F 6.3 °F 61% 30.36 in 10.0 mi East 4.6 mph - N/A   Mostly Cloudy
4:35 AM 18.0 °F 7.7 °F 6.6 °F 61% 30.33 in 10.0 mi East 8.1 mph - N/A   Mostly Cloudy
4:55 AM 18.0 °F 6.9 °F 6.6 °F 61% 30.31 in 10.0 mi East 9.2 mph - N/A   Overcast
5:15 AM 17.8 °F 5.9 °F 6.3 °F 61% 30.29 in 10.0 mi East 10.4 mph - N/A   Overcast
5:35 AM 18.0 °F 5.4 °F 6.3 °F 60% 30.26 in 10.0 mi East 11.5 mph - N/A   Overcast
5:55 AM 18.1 °F 6.3 °F 5.9 °F 59% 30.27 in 10.0 mi East 10.4 mph - N/A   Overcast
6:15 AM 18.1 °F 7.9 °F 6.6 °F 61% 30.27 in 10.0 mi ESE 8.1 mph - N/A   Overcast
6:35 AM 18.1 °F 7.9 °F 6.8 °F 61% 30.26 in 10.0 mi East 8.1 mph - N/A   Overcast
6:55 AM 17.6 °F 7.3 °F 8.6 °F 68% 30.25 in 3.0 mi ESE 8.1 mph - N/A Snow Light Snow
7:15 AM 17.6 °F 5.7 °F 9.0 °F 69% 30.24 in 10.0 mi East 10.4 mph - N/A   Overcast
7:25 AM 17.6 °F 5.7 °F 8.6 °F 68% 30.23 in 10.0 mi East 10.4 mph - N/A   Overcast
7:47 AM 17.6 °F 5.0 °F 8.6 °F 68% 30.19 in 7.0 mi East 11.5 mph - N/A   Overcast
8:47 AM 15.8 °F 5.1 °F 12.2 °F 86% 30.19 in 0.5 mi SE 8.1 mph - N/A Snow Snow
9:47 AM 15.8 °F 6.1 °F 12.2 °F 86% 30.16 in 0.5 mi ESE 6.9 mph - N/A Snow Snow
10:50 AM 17.6 °F 7.3 °F 14.0 °F 86% 30.13 in 0.8 mi ESE 8.1 mph - N/A Snow Light Snow
11:50 AM 17.6 °F 8.2 °F 12.2 °F 79% 30.11 in 1.5 mi ESE 6.9 mph - N/A Snow Light Snow
12:13 PM 17.6 °F 9.3 °F 12.2 °F 79% 30.10 in 3.0 mi SE 5.8 mph - N/A   Overcast
12:50 PM 17.6 °F 8.2 °F 12.2 °F 79% 30.06 in 3.0 mi ESE 6.9 mph - N/A Snow Light Snow
1:50 PM 17.6 °F 10.7 °F 14.0 °F 86% 30.05 in 7.0 mi South 4.6 mph - N/A   Overcast
2:50 PM 19.4 °F 14.3 °F 14.0 °F 80% 30.03 in 10.0 mi SSE 3.5 mph - N/A   Overcast
3:50 PM 19.4 °F 11.5 °F 15.8 °F 86% 30.02 in 10.0 mi SSE 5.8 mph - N/A   Overcast
4:58 PM 19.4 °F 11.5 °F 15.8 °F 86% 30.04 in 10.0 mi WSW 5.8 mph - N/A   Overcast
5:50 PM 19.4 °F - 15.8 °F 86% 30.03 in 10.0 mi Calm Calm - N/A   Overcast
6:50 PM 19.4 °F - 15.8 °F 86% 30.05 in 10.0 mi Calm Calm - N/A   Overcast
8:15 PM 21.2 °F 13.6 °F 17.2 °F 85% 30.06 in 10.0 mi SSW 5.8 mph - N/A   Overcast
8:35 PM 21.6 °F - 17.4 °F 84% 30.05 in 10.0 mi North - - N/A   Overcast
8:55 PM 22.1 °F 14.7 °F 18.1 °F 85% 30.08 in 10.0 mi WSW 5.8 mph - N/A   Overcast
9:15 PM 22.6 °F 14.3 °F 18.3 °F 83% 30.09 in 10.0 mi WSW 6.9 mph - N/A   Overcast
9:35 PM 23.0 °F 14.7 °F 18.5 °F 83% 30.10 in 7.0 mi SW 6.9 mph - N/A   Overcast
9:55 PM 23.0 °F 15.8 °F 19.4 °F 86% 30.11 in 7.0 mi WSW 5.8 mph - N/A   Overcast
10:15 PM 22.8 °F 13.6 °F 20.1 °F 89% 30.11 in 5.0 mi WSW 8.1 mph - N/A   Overcast
10:35 PM 22.8 °F 13.6 °F 20.1 °F 89% 30.10 in 10.0 mi SW 8.1 mph - N/A   Overcast
10:55 PM 22.6 °F 14.3 °F 19.9 °F 89% 30.09 in 10.0 mi SW 6.9 mph - N/A   Overcast
11:15 PM 22.8 °F 14.5 °F 19.9 °F 89% 30.09 in 10.0 mi SW 6.9 mph - N/A   Overcast
11:35 PM 22.8 °F 14.5 °F 19.9 °F 89% 30.10 in 10.0 mi SSW 6.9 mph - N/A   Overcast
11:55 PM 23.0 °F 13.1 °F 20.3 °F 89% 30.10 in 10.0 mi SSW 9.2 mph - N/A   Overcast